This demonstration page uses our WeatherBlox Daily Observations layout. Learn more.

Left ArrowRight Arrow

Hourly Observations for January 15, 2017

Temp ( °F °C ) Dew Point ( °F °C ) Humidity (%) Winds ( mph kmh ) Pressure ( in mb ) Visibility ( mi km ) Precip ( " mm )
12:15 am 00:15 Cloudy 31 -0.8 17 -8.2 58 58 S 3 6 30.48 1032 10 16 0.00 0.00
12:35 am 00:35 Cloudy 30 -0.9 17 -8.2 58 58 S 3 6 30.45 1031 10 16 0.00 0.00
12:55 am 00:55 Cloudy 30 -1 17 -8.2 59 59 S 5 7 30.45 1031 10 16 0.00 0.00
1:15 am 01:15 Cloudy 30 -1 17 -8.1 59 59 S 3 6 30.45 1031 10 16 0.00 0.00
1:35 am 01:35 Cloudy 30 -1.1 17 -8.3 58 58 S 5 7 30.42 1030 10 16 0.00 0.00
1:55 am 01:55 Cloudy 30 -1.2 17 -8.5 58 58 SSW 5 7 30.42 1030 10 16 0.00 0.00
2:15 am 02:15 Cloudy 30 -1.2 17 -8.3 59 59 S 5 7 30.42 1030 10 16 0.00 0.00
2:35 am 02:35 Cloudy 30 -1.2 17 -8.3 59 59 S 3 6 30.36 1028 10 16 0.00 0.00
2:55 am 02:55 Cloudy 30 -1.1 17 -8.4 58 58 Calm 30.36 1028 10 16 0.00 0.00
3:15 am 03:15 Cloudy 30 -1.1 16 -8.9 56 56 S 3 6 30.36 1028 10 16 0.00 0.00
3:35 am 03:35 Cloudy 30 -1 16 -9 55 55 S 6 9 30.36 1028 10 16 0.00 0.00
3:55 am 03:55 Cloudy 30 -1 16 -8.8 56 56 S 3 6 30.36 1028 10 16 0.00 0.00
4:15 am 04:15 Cloudy 30 -1 16 -8.8 56 56 Calm 30.36 1028 10 16 0.00 0.00
4:35 am 04:35 Cloudy 30 -1 17 -8.6 57 57 S 5 7 30.36 1028 10 16 0.00 0.00
4:55 am 04:55 Cloudy 30 -1 16 -8.8 56 56 S 5 7 30.36 1028 10 16 0.00 0.00
5:15 am 05:15 Cloudy 30 -1 16 -8.7 56 56 S 5 7 30.36 1028 10 16 0.00 0.00
5:35 am 05:35 Cloudy 30 -1 16 -8.7 56 56 S 3 6 30.36 1028 10 16 0.00 0.00
5:55 am 05:55 Cloudy 30 -1.1 16 -8.7 57 57 S 6 9 30.36 1028 10 16 0.00 0.00
6:15 am 06:15 Cloudy 30 -1.2 17 -8.6 58 58 S 3 6 30.36 1028 10 16 0.00 0.00
6:35 am 06:35 Cloudy 30 -1.2 17 -8.5 58 58 S 6 9 30.36 1028 10 16 0.00 0.00
6:55 am 06:55 Cloudy with Light Wintry Mix 29 -1.5 17 -8.4 60 60 SSE 3 6 30.36 1028 10 16 0.00 0.00
7:15 am 07:15 Cloudy 29 -1.7 19 -7.5 65 65 SE 3 6 30.36 1028 10 16 0.00 0.00
7:35 am 07:35 Cloudy with Light Snow 28 -2 21 -6 74 74 SE 6 9 30.36 1028 4 6 0.01 0.25
7:55 am 07:55 Cloudy with Light Snow 28 -2.5 23 -4.9 84 84 SSE 5 7 30.36 1028 3 5 0.03 0.76
8:15 am 08:15 Cloudy 27 -2.6 24 -4.2 89 89 SE 5 7 30.36 1028 10 16 0.00 0.00
8:35 am 08:35 Cloudy 27 -2.7 24 -4.2 90 90 SE 3 6 30.36 1028 10 16 0.00 0.00
8:55 am 08:55 Cloudy with Light Snow 27 -2.7 25 -4 91 91 SSE 3 6 30.36 1028 3 5 0.00 0.00
9:15 am 09:15 Cloudy with Light Snow 27 -2.6 25 -3.8 92 92 ESE 3 6 30.36 1028 4 6 0.00 0.00
9:35 am 09:35 Cloudy with Mist and Fog 27 -2.6 25 -3.8 92 92 SSE 3 6 30.36 1028 5 8 0.00 0.00
9:55 am 09:55 Cloudy with Mist and Fog 27 -2.6 25 -3.7 92 92 SSE 5 7 30.36 1028 5 8 0.00 0.00
10:15 am 10:15 Cloudy with Mist and Fog 27 -2.6 26 -3.6 93 93 Calm 30.36 1028 4 6 0.00 0.00
10:35 am 10:35 Cloudy with Mist and Fog 28 -2.5 25 -3.7 92 92 Calm 30.36 1028 4 6 0.00 0.00
10:55 am 10:55 Cloudy with Mist and Fog 28 -2.5 26 -3.5 93 93 SE 3 6 30.36 1028 2 3 0.00 0.00
11:15 am 11:15 Cloudy with Mist and Fog 28 -2.3 26 -3.2 94 94 ESE 5 7 30.33 1027 3 4 0.00 0.00
11:35 am 11:35 Cloudy with Mist and Fog 28 -2 27 -2.8 94 94 ESE 5 7 30.33 1027 3 5 0.00 0.00
11:55 am 11:55 Cloudy with Mist and Fog 28 -2 27 -2.8 94 94 E 3 6 30.27 1025 5 8 0.00 0.00
12:15 pm 12:15 Cloudy 28 -2 27 -2.8 94 94 ESE 5 7 30.27 1025 10 16 0.00 0.00
12:35 pm 12:35 Cloudy with Light Wintry Mix 29 -1.9 27 -2.6 95 95 Calm 30.24 1024 10 16 0.00 0.00
12:55 pm 12:55 Cloudy with Light Wintry Mix 29 -1.9 27 -2.7 94 94 ESE 3 6 30.24 1024 5 8 0.00 0.00
1:15 pm 13:15 Cloudy with Light Wintry Mix 29 -1.7 27 -2.6 94 94 Calm 30.24 1024 4 6 0.01 0.25
1:35 pm 13:35 Cloudy with Light Wintry Mix 29 -1.5 28 -2.5 93 93 Calm 30.24 1024 5 8 0.02 0.51
1:55 pm 13:55 Cloudy with Light Wintry Mix 29 -1.5 28 -2.5 93 93 Calm 30.24 1024 5 8 0.02 0.51
2:15 pm 14:15 Cloudy with Light Wintry Mix 30 -1.3 28 -2.3 93 93 Calm 30.24 1024 10 16 0.00 0.00
2:35 pm 14:35 Cloudy with Light Wintry Mix 30 -1.3 28 -2.3 93 93 Calm 30.24 1024 5 8 0.01 0.25
2:55 pm 14:55 Cloudy with Light Wintry Mix 30 -1.2 28 -2.2 93 93 Calm 30.24 1024 7 11 0.01 0.25
3:15 pm 15:15 Cloudy with Light Wintry Mix 30 -1.2 28 -2.2 93 93 Calm 30.21 1023 10 16 0.00 0.00
3:35 pm 15:35 Cloudy with Mist and Fog 30 -1.1 28 -2 94 94 ESE 5 7 30.21 1023 5 8 0.00 0.00
3:55 pm 15:55 Cloudy 30 -1 29 -1.9 94 94 SE 5 7 30.21 1023 7 11 0.00 0.00
4:15 pm 16:15 Cloudy with Mist and Fog 30 -1.2 28 -2 94 94 Calm 30.21 1023 3 5 0.00 0.00
4:35 pm 16:35 Cloudy with Mist and Fog 30 -1.2 28 -2 94 94 E 3 6 30.21 1023 4 6 0.00 0.00
4:55 pm 16:55 Cloudy with Light Wintry Mix 30 -1.2 28 -2 94 94 E 3 6 30.21 1023 5 8 0.00 0.00
5:15 pm 17:15 Cloudy 30 -1.2 28 -2 94 94 E 3 6 30.21 1023 10 16 0.00 0.00
5:35 pm 17:35 Cloudy with Mist and Fog 30 -1.2 29 -1.8 96 96 E 3 6 30.21 1023 4 6 0.00 0.00
5:55 pm 17:55 Cloudy with Mist and Fog 30 -1.2 29 -1.8 96 96 E 5 7 30.21 1023 2 3 0.00 0.00
6:15 pm 18:15 Cloudy with Mist and Fog 30 -1.2 29 -1.7 96 96 E 5 7 30.21 1023 2 3 0.00 0.00
6:35 pm 18:35 Cloudy with Mist and Fog 30 -1.1 29 -1.6 96 96 E 5 7 30.21 1023 2 3 0.00 0.00
6:55 pm 18:55 Cloudy with Light Wintry Mix 30 -1.1 29 -1.6 96 96 NE 6 9 30.18 1022 7 11 0.00 0.00
7:15 pm 19:15 Cloudy 30 -1.1 29 -1.6 96 96 ENE 7 11 30.18 1022 10 16 0.00 0.00
7:35 pm 19:35 Cloudy with Light Wintry Mix 30 -1.2 29 -1.7 96 96 E 6 9 30.18 1022 5 8 0.00 0.00
7:55 pm 19:55 Cloudy with Light Wintry Mix 30 -1 29 -1.5 96 96 E 5 7 30.18 1022 3 5 0.00 0.00
8:15 pm 20:15 Cloudy with Light Wintry Mix 30 -0.9 29 -1.5 96 96 E 6 9 30.18 1022 4 6 0.01 0.25
8:35 pm 20:35 Cloudy with Light Wintry Mix 31 -0.8 29 -1.5 95 95 E 5 7 30.18 1022 5 8 0.03 0.76
8:55 pm 20:55 Cloudy with Light Wintry Mix 31 -0.8 29 -1.4 96 96 E 6 9 30.18 1022 5 8 0.06 1.52
9:15 pm 21:15 Cloudy with Light Wintry Mix 31 -0.7 30 -1.3 96 96 ESE 6 9 30.18 1022 5 8 0.02 0.51
9:35 pm 21:35 Cloudy with Light Wintry Mix 31 -0.8 29 -1.5 95 95 ESE 5 7 30.18 1022 5 8 0.04 1.02
9:55 pm 21:55 Cloudy with Light Wintry Mix 31 -0.7 29 -1.5 94 94 ESE 5 7 30.18 1022 7 11 0.05 1.27
10:15 pm 22:15 Cloudy with Light Wintry Mix 31 -0.7 29 -1.5 94 94 ESE 5 7 30.18 1022 10 16 0.00 0.00
10:35 pm 22:35 Cloudy with Light Wintry Mix 31 -0.7 29 -1.5 94 94 E 5 7 30.15 1021 5 8 0.00 0.00
10:55 pm 22:55 Cloudy with Light Wintry Mix 31 -0.7 29 -1.4 95 95 ESE 5 7 30.15 1021 4 6 0.00 0.00
11:15 pm 23:15 Cloudy with Light Wintry Mix 31 -0.7 29 -1.4 95 95 E 5 7 30.15 1021 5 8 0.00 0.00
11:35 pm 23:35 Cloudy with Light Wintry Mix 31 -0.6 29 -1.4 94 94 ESE 6 9 30.15 1021 3 5 0.00 0.00
11:55 pm 23:55 Cloudy with Mist and Fog 31 -0.7 29 -1.5 94 94 E 5 7 30.15 1021 3 5 0.01 0.25

Powered by AerisWeather